Weather History for KISO - March, 2013

Change the Weather History Date:

Thursday, March 14, 2013

  Actual Average Record
Temperature  
Mean Temperature 46 °F -  
Max Temperature 60 °F 61 °F 87 °F (1990)
Min Temperature 32 °F 42 °F 23 °F (2014)
Degree Days  
Heating Degree Days 19    
Moisture  
Dew Point 21 °F    
Average Humidity 52    
Maximum Humidity 84    
Minimum Humidity 20    
Precipitation  
Precipitation 0.00 in - - ()
Sea Level Pressure  
Sea Level Pressure 30.16 in    
Wind  
Wind Speed 8 mph (NW)    
Max Wind Speed 20 mph    
Max Gust Speed 29 mph    
Visibility 10 miles    
Events      
Averages and records for this station are not official NWS values.
T = Trace of Precipitation, MM = Missing Value Source: NWS Daily Summary

Daily Weather History Graph

Daily Weather History Graph

Search for Another Location

Airport or City:

Trip Planner

Search our weather history database for the weather conditions in past years. The results will help you decide how hot, cold, wet, or windy it might be!

Date:

Astronomy

Mar. 14, 2013 Rise Set
Actual Time 7:22 AM EDT 7:17 PM EDT
Civil Twilight 6:56 AM EDT 7:42 PM EDT
Nautical Twilight 6:27 AM EDT 8:12 PM EDT
Astronomical Twilight 5:57 AM EDT 8:41 PM EDT
Moon 8:42 AM EDT (3/14) 10:22 PM EDT (3/14)
Length of Visible Light 12h 45m
Length of Day
11h 55m
Waxing Crescent, 9% of the Moon is Illuminated
Mar 14
Waxing Crescent
Mar 19
First Quarter
Mar 27
Full
Apr 3
Last Quarter
Apr 10
New

Hourly Weather History & Observations

Time (EDT) Temp. Windchill Dew Point Humidity Pressure Visibility Wind Dir Wind Speed Gust Speed Precip Events Conditions
12:15 AM 43.9 °F 40.5 °F 20.7 °F 40% 30.10 in 10.0 mi NW 5.8 mph - N/A   Clear
12:35 AM 43.7 °F 37.7 °F 19.9 °F 39% 30.11 in 10.0 mi NNW 11.5 mph 19.6 mph N/A   Clear
12:55 AM 42.8 °F 34.3 °F 20.5 °F 41% 30.12 in 10.0 mi NNW 19.6 mph 27.6 mph N/A   Clear
1:15 AM 41.9 °F 33.7 °F 19.4 °F 41% 30.12 in 10.0 mi NW 17.3 mph 28.8 mph N/A   Clear
1:35 AM 41.0 °F 33.1 °F 18.5 °F 40% 30.13 in 10.0 mi NNW 15.0 mph 25.3 mph N/A   Clear
2:15 AM 38.8 °F 32.6 °F 19.9 °F 47% 30.14 in 10.0 mi NW 9.2 mph - N/A   Clear
2:55 AM 37.4 °F 32.1 °F 20.3 °F 50% 30.15 in 10.0 mi NW 6.9 mph - N/A   Clear
3:15 AM 37.2 °F 29.1 °F 19.0 °F 48% 30.15 in 10.0 mi NNW 12.7 mph 16.1 mph N/A   Clear
3:35 AM 36.9 °F 30.1 °F 18.3 °F 47% 30.15 in 10.0 mi NW 9.2 mph 17.3 mph N/A   Clear
3:55 AM 36.3 °F 30.1 °F 18.7 °F 49% 30.15 in 10.0 mi NW 8.1 mph - N/A   Clear
4:15 AM 35.6 °F 29.2 °F 18.5 °F 50% 30.15 in 10.0 mi NW 8.1 mph - N/A   Clear
4:35 AM 35.1 °F 29.3 °F 18.7 °F 51% 30.15 in 10.0 mi NW 6.9 mph - N/A   Clear
4:55 AM 34.3 °F 28.4 °F 19.0 °F 54% 30.15 in 10.0 mi NW 6.9 mph - N/A   Clear
5:15 AM 34.2 °F 30.0 °F 18.7 °F 53% 30.16 in 10.0 mi NW 4.6 mph - N/A   Clear
5:35 AM 33.8 °F 29.6 °F 18.5 °F 54% 30.17 in 10.0 mi WNW 4.6 mph - N/A   Clear
5:55 AM 33.6 °F 28.4 °F 18.7 °F 54% 30.17 in 10.0 mi WNW 5.8 mph - N/A   Clear
6:15 AM 33.3 °F 27.9 °F 18.7 °F 55% 30.18 in 10.0 mi WNW 5.8 mph - N/A   Clear
6:35 AM 33.1 °F 26.9 °F 18.9 °F 56% 30.19 in 10.0 mi NW 6.9 mph - N/A   Clear
6:55 AM 32.9 °F 27.5 °F 18.7 °F 56% 30.20 in 10.0 mi NW 5.8 mph - N/A   Clear
6:56 AM 32.0 °F 26.4 °F 19.4 °F 60% 30.20 in 10.0 mi NW 5.8 mph - N/A   Clear
7:56 AM 33.8 °F 28.6 °F 19.4 °F 56% 30.21 in 10.0 mi WNW 5.8 mph - N/A   Clear
8:56 AM 37.4 °F 29.8 °F 19.4 °F 48% 30.23 in 10.0 mi NW 11.5 mph 19.6 mph N/A   Clear
9:56 AM 39.2 °F 32.5 °F 19.4 °F 45% 30.23 in 10.0 mi NW 10.4 mph 17.3 mph N/A   Clear
10:56 AM 41.0 °F 36.4 °F 17.6 °F 39% 30.22 in 10.0 mi NNW 6.9 mph 16.1 mph N/A   Clear
11:56 AM 44.6 °F 40.2 °F 17.6 °F 34% 30.22 in 10.0 mi NW 8.1 mph 18.4 mph N/A   Clear
12:56 PM 46.4 °F 41.9 °F 17.6 °F 32% 30.21 in 10.0 mi NW 9.2 mph 16.1 mph N/A   Clear
1:56 PM 48.2 °F - 19.4 °F 32% 30.18 in 10.0 mi NW 9.2 mph 16.1 mph N/A   Clear
2:56 PM 50.0 °F - 19.4 °F 30% 30.15 in 10.0 mi West 10.4 mph 18.4 mph N/A   Clear
3:56 PM 51.8 °F - 19.4 °F 28% 30.14 in 10.0 mi West 8.1 mph - N/A   Clear
4:56 PM 51.8 °F - 17.6 °F 26% 30.12 in 10.0 mi West 8.1 mph 17.3 mph N/A   Clear
5:56 PM 60.8 °F - 19.4 °F 20% 30.11 in 10.0 mi West 9.2 mph - N/A   Clear
6:56 PM 50.0 °F - 19.4 °F 30% 30.12 in 10.0 mi West 4.6 mph - N/A   Clear
7:56 PM 42.8 °F 41.1 °F 26.6 °F 53% 30.13 in 10.0 mi WSW 3.5 mph - N/A   Clear
8:56 PM 37.4 °F 34.9 °F 28.4 °F 70% 30.14 in 10.0 mi WSW 3.5 mph - N/A   Clear
9:15 PM 36.0 °F - 27.9 °F 72% 30.14 in 10.0 mi Calm Calm - N/A   Clear
9:35 PM 35.6 °F - 27.9 °F 73% 30.14 in 10.0 mi Calm Calm - N/A   Clear
9:55 PM 35.2 °F - 29.3 °F 79% 30.15 in 10.0 mi Calm Calm - N/A   Clear
10:15 PM 33.1 °F 28.7 °F 28.8 °F 84% 30.15 in 10.0 mi WSW 4.6 mph - N/A   Clear
10:35 PM 36.7 °F - 27.3 °F 69% 30.15 in 10.0 mi Calm Calm - N/A   Clear
10:55 PM 34.0 °F - 28.0 °F 79% 30.15 in 10.0 mi Calm Calm - N/A   Clear
11:15 PM 33.8 °F - 28.9 °F 82% 30.16 in 10.0 mi Calm Calm - N/A   Clear
11:35 PM 33.3 °F - 28.0 °F 81% 30.16 in 10.0 mi Calm Calm - N/A   Clear
11:55 PM 33.3 °F - 28.4 °F 82% 30.16 in 10.0 mi Calm Calm - N/A   Clear